Regional Weather Roundup
Issued by NWS

Home | Current Version | Previous Version | Graphics & Text | Print | Product List | Glossary On
Versions: 1 2 3 4 5 6 7 8 9 10 11 12 13 14 15 16 17 18 19 20 21 22 23 24 25 26 27 28 29 30 31 32 33 34 35 36 37 38 39 40 41 42 43 44 45 46 47 48 49 50
000
ASUS43 KMPX 030210
RWRMN
WEATHER ROUNDUP FOR MINNESOTA
NATIONAL WEATHER SERVICE TWIN CITIES/CHANHASSEN MN
900 PM CDT THU JUL 02 2015


NOTE: "FAIR" INDICATES FEW OR NO CLOUDS BELOW 12,000 FEET WITH NO
SIGNIFICANT WEATHER AND/OR OBSTRUCTIONS TO VISIBILITY. N/A MEANS
CURRENT SKY AND/OR WEATHER CONDITIONS ARE NOT AVAILABLE.

MNZ060>063-068>070-030300-
   Twin Cities Metro

CITY           SKY/WX    TMP DP  RH WIND       PRES   REMARKS
TWIN CITIES    MOCLDY    73  53  49 SW5       29.97S
ST PAUL        PTCLDY    70  55  59 S3        29.97S
CRYSTAL        CLEAR     73  53  49 SW5       29.96S
BLAINE         PTCLDY    73  55  53 SW3       29.97
LAKEVILLE      PTCLDY    64  61  88 CALM      29.98S
EDEN PRAIRIE   CLEAR     71  55  56 CALM      29.97R
SOUTH ST PAUL  PTCLDY    72  54  53 CALM      29.97S
LAKE ELMO      FAIR      68  59  73 SE3       29.99R
$$
MNZ001>005-007-008-013>017-022>024-027-028-030300-
   Northwest Minnesota

CITY           SKY/WX    TMP DP  RH WIND       PRES   REMARKS
BEMIDJI        PTCLDY    68  56  66 SW5       29.95R
HALLOCK        PTCLDY    70  66  88 SW6       29.86S
ROSEAU         MOCLDY    72  63  73 SW9       29.87S
WARROAD        MOCLDY    72  63  73 SW7       29.88S
THIEF RVR FALL CLOUDY    70  57  64 S7        29.91S
CROOKSTON      PTCLDY    72  63  73 S6        29.90S
FOSSTON        CLOUDY    68  55  64 S8        29.94S
DETROIT LAKES  MOCLDY    68  54  60 SW6       29.97S
MOORHEAD       MOCLDY    72  55  56 S7        29.93F
PARK RAPIDS    PTCLDY    65  56  72 SW6       29.96S
MAHNOMEN       FAIR      69  56  64 S8        29.94S
$$
MNZ006-009>011-018-025>026-030300-
   North Central Minnesota

CITY           SKY/WX    TMP DP  RH WIND       PRES   REMARKS
BAUDETTE       MOCLDY    69  57  65 SW6       29.88S
FLAG ISLAND    CLOUDY    72  63  73 SW7       29.85R
INTL FALLS     MOCLDY    67  57  70 SW6       29.89S
WASKISH        PTCLDY    70  59  68 S6        29.91F
BIG FORK       PTCLDY    66  61  82 SW3       29.93S
LONGVILLE      PTCLDY    70  57  64 CALM      29.95S
GRAND RAPIDS   MOCLDY    68  55  64 S5        29.95S
CRANE LAKE     CLOUDY    70  57  64 SW1       29.92F
ORR            MOCLDY    68  55  64 CALM      29.90S
COOK           MOCLDY    70  59  68 CALM      29.93F
WALKER         FAIR      67  56  69 SW5       29.94S
$$
MNZ012-019>021-037-030300-
   Northeast Minnesota

CITY           SKY/WX    TMP DP  RH WIND       PRES   REMARKS
DULUTH         PTCLDY    69  57  65 SW7       29.95S
ELY            PTCLDY    68  57  68 W3        29.93R
HIBBING        PTCLDY    67  58  72 SW3       29.94S
DULUTH HARBOR  CLEAR     73  61  64 SW7       29.93S
TWO HARBORS    PTCLDY    70  61  73 W5        29.92S
SILVER BAY     MOCLDY    70  59  68 CALM      29.91S
GRAND MARAIS     N/A     56  53  90 CALM      29.89F
G MARAIS ARPRT MOCLDY    63  55  77 SW3       29.94S
$$
MNZ029>031-032-039>041-046>048-054>057-064-030300-
   West Central Minnesota

CITY           SKY/WX    TMP DP  RH WIND       PRES   REMARKS
FERGUS FALLS   PTCLDY    68  57  68 S3        29.95R
WHEATON        CLEAR     66  52  59 S5        29.97R
MORRIS         CLEAR     66  55  68 SW5       29.96S
ALEXANDRIA     CLEAR     66  52  60 S5        29.98F
ELBOW LAKE     FAIR      64  56  75 S6        29.96S
WADENA         PTCLDY    64  54  68 SW3       29.96S
GLENWOOD       CLEAR     66  55  68 S3        29.98S
APPLETON       CLEAR     68  52  56 CALM      29.96S
BENSON         CLEAR     64  55  72 CALM      29.97S
ORTONVILLE     CLEAR     66  54  63 CALM      29.96S
MADISON        CLEAR     68  54  60 CALM      29.97S
WILLMAR        FAIR      70  55  60 CALM      29.99R
$$
MNZ033>034-036-042>043-049>051-058-059-030300-
   Central Minnesota

CITY           SKY/WX    TMP DP  RH WIND       PRES   REMARKS
ST CLOUD       CLEAR     66  57  72 S5        29.96F
SAUK CENTRE    FAIR      65  57  74 CALM      29.97S
PAYNESVILLE    CLEAR     62  56  79 CALM      29.98R
AITKIN         PTCLDY    66  57  72 CALM      29.94F
PINE RIVER       N/A     68  57  68 CALM      29.99S
BRAINERD       CLEAR     69  55  60 W6        29.97S
STAPLES        CLEAR     64  54  68 CALM      29.97S
LONG PRAIRIE   FAIR      64  54  68 CALM      29.98S
LITTLE FALLS   CLEAR     64  54  68 CALM      29.97S
LITCHFIELD     CLEAR     66  54  63 CALM      29.98S
BUFFALO        CLEAR     69  56  63 CALM      29.98S
MAPLE LAKE     CLEAR     67  59  76 CALM      29.98S
$$
MNZ037-044-045-052-053-030300-
   East Central Minnesota

CITY           SKY/WX    TMP DP  RH WIND       PRES   REMARKS
PRINCETON      CLEAR     70  57  64 CALM      29.97S
MORA           CLEAR     64  55  72 CALM      29.98S
CAMBRIDGE      CLEAR     72  57  60 CALM      29.95S
RUSH CITY      CLEAR     64  58  79 CALM      29.96S
MOOSE LAKE     CLEAR     63  59  88 CALM      29.94S
HINCKLEY       FAIR      64  61  88 CALM      29.96S
CLOQUET        PTCLDY    66  54  63 SW3       29.96S
MCGREGOR       PTCLDY    68  55  64 CALM      29.96S
$$
MNZ071>073-080-081-089-090-097-098-030300-
   Southwest Minnesota

CITY           SKY/WX    TMP DP  RH WIND       PRES   REMARKS
MONTEVIDEO     CLEAR     66  52  59 CALM      29.98S
GRANITE FALLS  CLEAR     65  56  70 CALM      29.99R
CANBY          PTCLDY    65  56  72 CALM      29.99S
MARSHALL       PTCLDY    66  52  59 S3        29.97S
REDWOOD FALLS  PTCLDY    68  55  63 SE5       29.96F
OLIVIA         CLEAR     68  52  56 CALM      29.97S
PIPESTONE      PTCLDY    64  55  72 CALM      30.00S
WINDOM         MOCLDY    66  54  63 CALM      30.00R
WORTHINGTON    MOCLDY    64  50  59 S3        30.00R
JACKSON        MOCLDY    64  55  72 S3        30.00S
TRACY          PTCLDY    66  56  70 S3        29.99S
SLAYTON        PTCLDY    65  49  57 CALM      30.01S
$$
MNZ065>067-074>077-082>085-091>093-030300-
   South Central Minnesota

CITY           SKY/WX    TMP DP  RH WIND       PRES   REMARKS
MANKATO        MOCLDY    70  55  60 E5        29.98S
NEW ULM        PTCLDY    70  52  52 CALM      29.98S
ST JAMES       MOCLDY    68  54  60 S5        29.99S
FAIRMONT       PTCLDY    64  48  55 S5        29.99R
GLENCOE        PTCLDY    67  59  74 CALM      29.97S
FARIBAULT      MOCLDY    66  59  77 CALM      29.99S
OWATONNA       MOCLDY    66  57  72 CALM      29.99S
WASECA         MOCLDY    64  57  77 E3        30.00S
ALBERT LEA     MOCLDY    66  55  68 CALM      29.99R
$$
MNZ078>079-086>088-094>096-030300-
   Southeast Minnesota

CITY           SKY/WX    TMP DP  RH WIND       PRES   REMARKS
ROCHESTER      PTCLDY    66  55  67 SE5       30.00S
RED WING       PTCLDY    66  59  77 CALM      29.97R
STANTON        MOCLDY    68  57  68 CALM      29.97S
DODGE CENTER   PTCLDY    66  59  77 SE3       30.00S
WINONA         PTCLDY    68  57  68 CALM      29.98S
AUSTIN         MOCLDY    66  57  72 CALM      29.99S
PRESTON        PTCLDY    65  55  70 CALM      30.01R
$$
ABBREVIATIONS USED IN REMARKS
   TC - TEMPERATURES IN CELSIUS
  WCI - WIND CHILL INDEX
   HX - HEAT INDEX
  VSB - VISIBILITY
$$



USA.gov is the U.S. government's official web portal to all federal, state and local government web resources and services.